Flag for Morocco Weather past 2 weeks in Tangier, Morocco

Now
72 °F

Scattered clouds.


Feels Like: 72 °F
Forecast: 64 / 77 °F
Wind: 10 mph from Southwest

Location: Tanger Aerodrome

Current Time: Sep 23, 2014 at 6:00:10 PM

Latest Report: Sep 23, 2014 at 5:30 PM


Visibility: N/A

Pressure: 29.98 "Hg

Humidity: 78%

Dew point: 64 °F

Location of TangierLocation

Historic Weather in Tangier — Graph

°F

Tangier temperature yesterday

Maximum temperature yesterday: 79 °F (at 2:00 PM)
Minimum temperature yesterday: 63 °F (at 4:30 AM)
Average temperature yesterday: 71 °F

Past Weeks' High & Low Weather Summary

 TemperatureHumidityPressure
High84 °F (Sep 15, 1:30 PM)94% (Sep 9, 4:30 AM)30.07 "Hg (Sep 9, 4:30 AM)
Low63 °F (Sep 14, 1:00 AM)37% (Sep 16, 11:00 AM)29.77 "Hg (Sep 16, 4:30 AM)
Average72 °F73%29.97 "Hg
* Reported Sep 8 5:00 PM — Sep 23 5:00 PM, Tangier, Weather by CustomWeather, © 2014

Note: Actual official high and low records may vary slightly from our data, if they occured in-between our weather recording intervals... More about our weather records

Advertising

Tangier weather history for previous 24 hours

 ConditionsComfort  
Time TempWeatherWind HumidityBarometerVisibility
5:00 PM
Sep 23
72 °FPartly sunny.12 mph83%29.98 "HgN/A
3:30 PM77 °FScattered clouds.17 mph54%29.98 "HgN/A
3:00 PM77 °FScattered clouds.20 mph57%29.98 "HgN/A
2:00 PM77 °FPartly sunny.13 mph57%30.01 "HgN/A
1:30 PM75 °FPartly sunny.14 mph65%30.01 "HgN/A
1:00 PM70 °FLight rain. Partly sunny.13 mph78%30.01 "Hg4 mi
12:30 PM77 °FPartly sunny.15 mph57%30.01 "HgN/A
12:00 PM75 °FScattered clouds.15 mph57%30.01 "HgN/A
11:30 AM75 °FScattered clouds.14 mph61%30.01 "HgN/A
11:00 AM75 °FScattered clouds.14 mph61%30.01 "HgN/A
10:30 AM73 °FPartly sunny.14 mph65%30.01 "HgN/A
10:00 AM72 °FPartly sunny.13 mph69%30.01 "HgN/A
9:30 AM70 °FPartly sunny.10 mph73%30.01 "HgN/A
9:00 AM68 °FPartly sunny.10 mph78%30.01 "HgN/A
8:30 AM68 °FScattered clouds.8 mph78%30.01 "Hg5 mi
8:00 AM66 °FScattered clouds.7 mph83%30.01 "Hg5 mi
7:30 AM66 °FPartly sunny.7 mph83%30.01 "Hg5 mi
7:00 AM66 °FPassing clouds.5 mph83%30.01 "Hg5 mi
6:30 AM66 °FPassing clouds.7 mph83%29.98 "Hg1 mi
6:00 AM66 °FPassing clouds.9 mph83%29.98 "Hg5 mi
5:30 AM66 °FPassing clouds.9 mph83%29.98 "Hg1 mi
5:00 AM68 °FPassing clouds.9 mph78%29.98 "Hg5 mi
4:30 AM68 °FPassing clouds.9 mph78%29.98 "Hg1 mi
4:00 AM68 °FPassing clouds.8 mph78%29.98 "Hg5 mi
3:30 AM68 °FPassing clouds.7 mph78%29.98 "Hg5 mi
3:00 AM68 °FPassing clouds.7 mph78%30.01 "Hg5 mi
2:30 AM68 °FPassing clouds.7 mph78%30.01 "Hg5 mi
2:00 AM68 °FPassing clouds.5 mph78%30.01 "Hg5 mi
1:30 AM68 °FPassing clouds.3 mph73%30.01 "Hg5 mi
1:00 AM68 °FPassing clouds.5 mph78%30.04 "Hg5 mi
12:30 AM68 °FPassing clouds.3 mph78%30.04 "Hg5 mi
12:00 AM68 °FPassing clouds.3 mph78%30.04 "Hg5 mi
11:30 PM
Sep 22
68 °FPassing clouds.3 mph73%30.04 "Hg5 mi
11:00 PM70 °FPassing clouds.6 mph73%30.04 "Hg5 mi
10:30 PM70 °FPassing clouds.7 mph73%30.04 "Hg5 mi
10:00 PM70 °FPassing clouds.8 mph73%30.01 "Hg5 mi
9:30 PM70 °FPassing clouds.7 mph73%30.01 "Hg5 mi
9:00 PM70 °FPassing clouds.9 mph73%30.01 "HgN/A
8:30 PM72 °FPassing clouds.10 mph69%30.01 "HgN/A
8:00 PM72 °FPassing clouds.9 mph69%30.01 "HgN/A
7:30 PM72 °FPassing clouds.12 mph65%30.01 "HgN/A
7:00 PM73 °FScattered clouds.13 mph65%30.01 "HgN/A
6:00 PM77 °FScattered clouds.15 mph57%30.01 "HgN/A
Weather by CustomWeather, © 2014

See weather overviewHow to use our weather pages